sat.trackr.live / text

‹ back to catalog

JUGNU

NORAD 37839 · 2011-058B

PAYLOAD ACTIVE UNKNOWN

§ Identity

Operator
Country
IND
Launch date
2011-10-12
Launch site
SRILR
Launch vehicle
Mass (kg)
RCS (m²)
0.15

Purposes: comms

External: N2YO · Heavens-Above · Gunter

§ Orbital elements

Epoch: 2026-05-25T03:46:23.488320Z

Period
101.86 min
Inclination
19.9606°
Eccentricity
0.0018624
Mean motion
14.13769072 rev/d
Perigee alt
833.0 km
Apogee alt
860.0 km
Semi-major
7,224.6 km
B*
7.2032e-5
RAAN
88.3352°
Arg perigee
181.5651°
Mean anomaly
295.5202°
Rev number
75,576

§ Raw data

JUGNU1 37839U 11058B   26145.15721630  .00000405  00000+0  72032-4 0  99942 37839  19.9606  88.3352 0018624 181.5651 295.5202 14.13769072755765

JSON: /api/v1/satellites/37839 · /tle

For live sub-satellite position, see the globe view (requires WebGL).

§ Visibility from observer

Set your observer location to see the next 7 days of passes ≥ 10°. The values pass through the URL so the page stays shareable.

No JS? Fill the form by hand. The geolocation button needs JavaScript.

§ Radio — SatNOGS DB

ModeDescriptionDownlinkUplink
CW CW Beacon 437.275 MHz
FSK TLM 437.505 MHz

2 transmitters · refreshed weekly from db.satnogs.org